Вернуться в каталог

OSCAR 23 DEB

АктивенPO
NORAD 33395·DEBRIS·🇺🇸 United States

Запущен Apr 26, 1988 с Vandenberg Space Force Base

Loading…

Ближайшие Пролёты (ближайшие 24 часа)

TLE

СвежийSource: Space-Track

Эпоха: Sep 14, 2026, 15:39 UTC

1 33395U 88033K   26257.65234797  .00000113  00000-0  20082-3 0  9990
2 33395  90.3355  25.0459 0186987 105.2946 271.4054 13.29844412867744

Отслеживайте OSCAR 23 DEB в реальном времени с AllMySat

Download on the App Store